This is the latest recevied weather packets stored in our database for station/object N4UUJ-1. If no packets are shown the sender has not sent any weather packets the latest 10 day(s).
| Time | Temp. | Humidity | Pressure | Rain* | Wind** | Luminosity | Snow |
|---|---|---|---|---|---|---|---|
| 1788623790 | 30.56° C | 75% | 1019 hPa | 0 mm | - | - | - |
| 1788621989 | 30° C | 75% | 1019.2 hPa | 0 mm | - | - | - |
| 1788620188 | 30° C | 75% | 1019.3 hPa | 0 mm | - | - | - |
| 1788618387 | 27.78° C | 75% | 1019.3 hPa | 0 mm | - | - | - |
| 1788616586 | 25.56° C | 75% | 1019.4 hPa | 0 mm | - | - | - |
| 1788614785 | 23.89° C | 75% | 1019.4 hPa | 0 mm | - | - | - |
| 1788612984 | 21.67° C | 75% | 1019.6 hPa | 0 mm | - | - | - |
| 1788611183 | 19.44° C | 75% | 1019 hPa | 0 mm | - | - | - |
| 1788609382 | 19.44° C | 75% | 1019 hPa | 0 mm | - | - | - |
| 1788607581 | 19.44° C | 75% | 1018.9 hPa | 0 mm | - | - | - |
| 1788605780 | 19.44° C | 75% | 1018.6 hPa | 0 mm | - | - | - |
| 1788603979 | 19.44° C | 75% | 1018.4 hPa | 0 mm | - | - | - |
| 1788602178 | 19.44° C | 75% | 1018.3 hPa | 0 mm | - | - | - |
| 1788600377 | 19.44° C | 75% | 1018.2 hPa | 0 mm | - | - | - |
| 1788598576 | 20° C | 75% | 1018 hPa | 0 mm | - | - | - |
| 1788596775 | 20° C | 75% | 1018.1 hPa | 0 mm | - | - | - |
| 1788594974 | 20° C | 75% | 1018.1 hPa | 0 mm | - | - | - |
| 1788593173 | 20.56° C | 75% | 1018.1 hPa | 0 mm | - | - | - |
| 1788591372 | 20.56° C | 75% | 1018.3 hPa | 0 mm | - | - | - |
| 1788589571 | 21.11° C | 75% | 1018.4 hPa | 0 mm | - | - | - |
| 1788587770 | 21.11° C | 75% | 1018.5 hPa | 0 mm | - | - | - |
| 1788585969 | 21.11° C | 75% | 1018.6 hPa | 0 mm | - | - | - |
| 1788584168 | 21.11° C | 75% | 1018.7 hPa | 0 mm | - | - | - |
| 1788582367 | 21.67° C | 75% | 1018.6 hPa | 0 mm | - | - | - |
| 1788580566 | 21.67° C | 75% | 1019 hPa | 0 mm | - | - | - |
* Rain latest hour (hover to see other rain measurements)
** Current wind speed in m/s (hover to see current wind gust speed)